Home > Weather > Dinslaken > Past weeks

Flag for Germany Past Weather in Dinslaken, North Rhine-Westphalia, Germany — Yesterday and Last 2 Weeks

Now
70 °F

Fog.


Feels Like: 70 °F
Forecast: 57 / 71 °F
Wind: 6 mph from North

Location: Duesseldorf

Current Time: May 30, 2016 at 6:33:22 PM

Latest Report: May 30, 2016 at 5:50 PM


Visibility: 3 mi

Pressure: 29.56 "Hg

Humidity: 88%

Dew Point: 66 °F

Location of DinslakenLocation

Past Weather in Dinslaken — Graph

°F

Dinslaken Temperature Yesterday

Maximum temperature yesterday: 73 °F (at 11:50 AM)
Minimum temperature yesterday: 55 °F (at 3:50 AM)
Average temperature yesterday: 64 °F

High & Low Weather Summary for the Past Weeks

 TemperatureHumidityPressure
High77 °F (May 28, 2:50 PM)100% (May 19, 3:50 AM)30.12 "Hg (May 19, 3:50 AM)
Low43 °F (May 16, 3:50 AM)38% (May 26, 4:50 PM)29.59 "Hg (May 30, 3:20 PM)
Average59 °F75%29.92 "Hg
* Reported May 15 5:20 PM — May 30 5:20 PM, Dinslaken, Weather by CustomWeather, © 2016

Note: Actual official high and low records may vary slightly from our data, if they occured in-between our weather recording intervals... More about our weather records

Advertising

Dinslaken Weather History for the Previous 24 Hours

Scroll right to see more
 ConditionsComfort  
Time TempWeatherWind HumidityBarometerVisibility
5:20 PM
Mon, May 30
68 °FFog.6 mph88%29.59 "Hg3 mi
4:50 PM68 °FScattered showers. Broken clouds.8 mph88%29.59 "Hg4 mi
4:20 PM68 °FScattered showers. Broken clouds.8 mph88%29.59 "Hg4 mi
3:50 PM68 °FScattered showers. Broken clouds.8 mph88%29.59 "Hg4 mi
3:20 PM68 °FScattered showers. Fog.7 mph88%29.59 "Hg3 mi
2:50 PM66 °FScattered showers. Fog.10 mph88%29.62 "Hg3 mi
2:20 PM64 °FScattered showers. Fog.12 mph94%29.62 "Hg3 mi
1:50 PM64 °FFog.10 mph94%29.62 "Hg3 mi
1:20 PM64 °FLight rain. Fog.8 mph94%29.62 "Hg2 mi
12:50 PM63 °FLight rain. Fog.10 mph100%29.62 "Hg2 mi
12:20 PM61 °FLight rain. Fog.10 mph100%29.62 "Hg2 mi
11:50 AM61 °FThundershowers. Partly sunny.9 mph100%29.62 "Hg1 mi
11:20 AM61 °FThunderstorms. Partly sunny.12 mph100%29.62 "Hg1 mi
10:50 AM61 °FThunderstorms. Partly sunny.12 mph100%29.62 "Hg1 mi
10:20 AM61 °FSprinkles. Partly sunny.7 mph94%29.62 "Hg5 mi
9:50 AM61 °FSprinkles. Broken clouds.9 mph94%29.62 "HgN/A
9:20 AM61 °FSprinkles. Broken clouds.8 mph94%29.62 "HgN/A
8:50 AM61 °FLight rain. Fog.9 mph100%29.62 "Hg3 mi
8:20 AM61 °FSprinkles. Fog.9 mph100%29.62 "Hg2 mi
7:50 AM61 °FThundershowers. Fog.9 mph100%29.62 "Hg3 mi
7:20 AM61 °FLight rain. Fog.9 mph100%29.62 "Hg3 mi
6:50 AM61 °FLight rain. Fog.7 mph100%29.62 "Hg1 mi
6:20 AM61 °FThunderstorms. Partly cloudy.9 mph100%29.65 "Hg1 mi
5:50 AM61 °FThunderstorms. Partly cloudy.7 mph100%29.65 "Hg1 mi
5:20 AM61 °FThunderstorms. Low clouds.10 mph100%29.65 "Hg2 mi
4:50 AM61 °FThundershowers. Low clouds.9 mph94%29.65 "Hg3 mi
4:20 AM61 °FLow clouds.10 mph94%29.65 "Hg5 mi
3:50 AM63 °FLow clouds.12 mph88%29.68 "Hg5 mi
3:20 AM63 °FOvercast.9 mph88%29.68 "Hg6 mi
2:50 AM61 °FOvercast.8 mph94%29.68 "Hg6 mi
2:20 AM61 °FOvercast.8 mph94%29.68 "HgN/A
1:50 AM63 °FOvercast.6 mph88%29.71 "HgN/A
1:20 AM63 °FOvercast.7 mph88%29.71 "HgN/A
12:50 AM63 °FOvercast.7 mph88%29.71 "HgN/A
12:20 AM63 °FOvercast.8 mph88%29.71 "HgN/A
11:50 PM
Sun, May 29
63 °FOvercast.7 mph88%29.71 "HgN/A
11:20 PM63 °FOvercast.8 mph88%29.71 "HgN/A
10:50 PM63 °FOvercast.9 mph88%29.74 "HgN/A
10:20 PM63 °FPartly sunny.8 mph88%29.74 "HgN/A
9:50 PM63 °FPartly sunny.9 mph88%29.71 "HgN/A
9:20 PM63 °FBroken clouds.10 mph88%29.71 "HgN/A
8:50 PM64 °FPartly sunny.10 mph83%29.71 "HgN/A
8:20 PM64 °FBroken clouds.12 mph83%29.71 "HgN/A
7:50 PM64 °FPartly sunny.12 mph83%29.71 "HgN/A
7:20 PM64 °FSprinkles. Partly sunny.9 mph83%29.71 "HgN/A
6:50 PM66 °FSprinkles. Partly sunny.10 mph78%29.71 "HgN/A
6:20 PM64 °FSprinkles. Partly sunny.9 mph88%29.71 "HgN/A
Weather by CustomWeather, © 2016

See weather overviewHow to use our weather pages